"2010-04-25 00:00:00",55180,7.074,46.4,7.787,1.423,10.68,104.1286,9.84,10.9,37.38,0,110.3,13.34,10.63,8.4
"2010-04-25 00:00:30",55181,6.871,49.09,6.752,1.385,11.52,104.1286,9.84,11.04,38.05,0,110.3,13.34,10.63,11.1
"2010-04-25 00:01:00",55182,6.69,43.36,6.932,1.326,10.64,104.1286,9.84,10.91,37.18,0,110.3,13.33,10.63,5.4
"2010-04-25 00:01:30",55183,6.593,43.79,6.72,1.257,12.45,104.1286,9.84,11.14,36.89,0,110.3,13.34,10.63,5.8
"2010-04-25 00:02:00",55184,5.583,38.77,7.46,1.535,10.86,104.1323,9.85,11.01,37.15,0,110.3,13.34,10.64,0.8
"2010-04-25 00:02:30",55185,6.259,43.92,7.697,1.377,10.92,104.1382,9.87,11.02,37.3,0,110.3,13.33,10.65,5.9
"2010-04-25 00:03:00",55186,6.47,46.06,5.376,0.918,9.85,104.1523,9.9,11.05,37.14,0,110.3,13.34,10.69,8.1
"2010-04-25 00:03:30",55187,8.42,54.63,6.396,1.355,12.42,104.1619,9.93,11.06,36.87,0,110.3,13.34,10.71,16.6
"2010-04-25 00:04:00",55188,6.863,46.54,4.265,0.967,10.29,104.1624,9.93,11.06,36.64,0,110.3,13.34,10.72,8.5
"2010-04-25 00:04:30",55189,8.36,48.55,5.477,1.173,12.69,104.1624,9.93,11.07,36.76,0,110.3,13.34,10.72,10.5
"2010-04-25 00:05:00",55190,8.67,50.12,6.279,1.291,12.74,104.1621,9.93,11.15,37.35,0,110.3,13.34,10.72,12.1
"2010-04-25 00:05:30",55191,6.897,43.04,6.859,1.016,10.47,104.1624,9.93,11.1,37.03,0,110.3,13.33,10.72,5.0
"2010-04-25 00:06:00",55192,6.983,47.06,5.672,1.054,10.12,104.1624,9.93,11,36.78,0,110.3,13.33,10.72,9.1
"2010-04-25 00:06:30",55193,7.159,48.36,9.3,1.112,11.18,104.1624,9.93,10.98,37.69,0,110.3,13.33,10.72,10.4
"2010-04-25 00:07:00",55194,7.172,45.66,6.759,1.304,11.51,104.1624,9.93,11.04,37.68,0,110.3,13.33,10.72,7.7
"2010-04-25 00:07:30",55195,5.866,43.73,9.88,1.243,10.86,104.1624,9.93,11.09,38.36,0,110.3,13.33,10.72,5.7
"2010-04-25 00:08:00",55196,7.719,53.42,6.076,1.343,13.08,104.1624,9.93,11.14,38.78,0,110.3,13.33,10.72,15.4
"2010-04-25 00:08:30",55197,7.319,52.62,6.024,1.259,12.71,104.1624,9.93,11.19,38.06,0,110.3,13.33,10.72,14.6
"2010-04-25 00:09:00",55198,6.418,51.82,3.96,1.093,10.63,104.1624,9.93,11.05,36.44,0,110.3,13.33,10.72,13.8
"2010-04-25 00:09:30",55199,7.118,53.05,6.449,1.216,10.87,104.1624,9.93,11.02,35.48,0,110.3,13.33,10.72,15.0
"2010-04-25 00:10:00",55200,7.125,50.07,2.975,0.309,9.48,104.1624,9.93,11.03,36.4,0,110.3,13.36,10.72,12.1
"2010-04-25 00:10:30",55201,7.005,50.89,6.11,1.088,9.89,104.1624,9.93,10.93,36.99,0,110.3,13.33,10.72,12.9
"2010-04-25 00:11:00",55202,7.5,49.02,8.34,1.418,11.6,104.1624,9.93,11.12,36.69,0,110.3,13.33,10.72,11.0
"2010-04-25 00:11:30",55203,8.01,51.53,6.096,1.289,13.15,104.1624,9.93,11.23,36.14,0,110.3,13.33,10.72,13.5
"2010-04-25 00:12:00",55204,6.928,48.29,7.127,1.438,11.96,104.1624,9.93,11.12,34.86,0,110.3,13.34,10.72,10.3
"2010-04-25 00:12:30",55205,6.163,54.46,6.804,1,10.95,104.1624,9.93,11.07,34.98,0,110.3,13.34,10.72,16.5
"2010-04-25 00:13:00",55206,6.856,45.95,7.663,1.455,10.71,104.1624,9.93,11.09,35.43,0,110.3,13.34,10.72,8.0
"2010-04-25 00:13:30",55207,6.029,43.54,2.289,0.352,8.91,104.1624,9.93,10.92,36.13,0,110.3,13.37,10.72,5.5
"2010-04-25 00:14:00",55208,5.743,44.51,2.49,0.286,9.43,104.1621,9.93,11.04,36.6,0,110.3,13.37,10.72,6.5
"2010-04-25 00:14:30",55209,7.137,48.7,7.044,1.278,12.37,104.1624,9.93,11.09,36.43,0,110.3,13.34,10.72,10.7
"2010-04-25 00:15:00",55210,7.677,53.09,6.26,1.223,13.43,104.1624,9.93,11.18,36.89,0,110.3,13.34,10.72,15.1
"2010-04-25 00:15:30",55211,6.936,48.94,6.927,1.356,11.77,104.1624,9.93,11.18,37.32,0,110.3,13.34,10.72,10.9
"2010-04-25 00:16:00",55212,7.091,48.51,7.996,1.384,11.91,104.1624,9.93,11.17,36.97,0,110.3,13.34,10.72,10.5
"2010-04-25 00:16:30",55213,5.787,42.46,8.07,1.032,9.88,104.1619,9.93,10.94,35.67,0,110.3,13.34,10.71,4.5
"2010-04-25 00:17:00",55214,4.725,39.74,2.364,0.448,8.6,104.1624,9.93,10.93,35.85,0,110.3,13.37,10.72,1.7
"2010-04-25 00:17:30",55215,4.888,44.46,1.961,0.225,8.85,104.1624,9.93,10.94,37.09,0,110.3,13.37,10.72,6.5
"2010-04-25 00:18:00",55216,6.533,52.93,7.525,1.4,10.58,104.1624,9.93,10.94,37.04,0,110.3,13.34,10.72,14.9
"2010-04-25 00:18:30",55217,6.525,53.97,9.04,1.726,12.49,104.1624,9.93,11.2,37.31,0,110.3,13.34,10.72,16.0
"2010-04-25 00:19:00",55218,6.085,46.92,8.36,1.129,12.22,104.1624,9.93,11.18,37.44,0,110.3,13.34,10.72,8.9
"2010-04-25 00:19:30",55219,7.225,58.26,7.58,1.488,12.23,104.1653,9.94,11.23,36.42,0,110.3,13.34,10.72,20.3
"2010-04-25 00:20:00",55220,5.535,64.39,6.474,1.394,11.3,104.1717,9.95,11.11,36.24,0,110.3,13.34,10.74,26.4
"2010-04-25 00:20:30",55221,4.79,52.95,3.436,0.378,8.34,104.1816,9.98,10.96,36.13,0,110.3,13.37,10.77,15.0
"2010-04-25 00:21:00",55222,4.373,54.58,2.368,0.123,8.47,104.1856,9.99,10.96,35.7,0,110.3,13.37,10.78,16.6
"2010-04-25 00:21:30",55223,4.03,49.8,1.103,0.098,8.81,104.1867,9.99,11,35.72,0,110.3,13.37,10.78,11.8
"2010-04-25 00:22:00",55224,5.802,57.46,6.869,1.323,12.56,104.1861,9.99,11.21,35.97,0,110.3,13.34,10.78,19.5
"2010-04-25 00:22:30",55225,6.542,55.68,7.808,1.157,13.06,104.187,9.99,11.25,35.86,0,110.3,13.33,10.78,17.7
"2010-04-25 00:23:00",55226,4.976,51.21,4.251,0.849,10.09,104.1878,9.99,11.1,35.85,0,110.3,13.33,10.78,13.2
"2010-04-25 00:23:30",55227,6.94,58.26,8.76,1.279,12.16,104.1887,10,11.26,35.99,0,110.3,13.33,10.78,20.3
"2010-04-25 00:24:00",55228,5.711,55.97,4.904,1.368,10.53,104.1875,9.99,11.09,35.73,0,110.3,13.33,10.78,18.0
"2010-04-25 00:24:30",55229,4.611,51.5,1.46,0.117,8.55,104.1878,9.99,10.99,35.43,0,110.3,13.36,10.78,13.5
"2010-04-25 00:25:00",55230,4.367,55.2,1.97,0.212,8.62,104.1875,9.99,11,35.47,0,110.3,13.36,10.78,17.2
"2010-04-25 00:25:30",55231,4.232,56.73,3.888,0.628,9.66,104.1853,9.99,11.14,35.79,0,110.3,13.33,10.77,18.7
"2010-04-25 00:26:00",55232,5.68,65.43,6.745,1.087,13.37,104.1856,9.99,11.2,35.85,0,110.3,13.33,10.78,27.4
"2010-04-25 00:26:30",55233,5.031,61.67,5.141,1.311,11.84,104.1861,9.99,11.14,35.92,0,110.3,13.33,10.78,23.7
"2010-04-25 00:27:00",55234,3.283,53.6,3.41,0.228,9.01,104.1875,9.99,11.02,36.04,0,110.3,13.36,10.78,15.6
"2010-04-25 00:27:30",55235,3.771,52.14,6.144,1.172,9.95,104.1895,10,11.16,36.2,0,110.3,13.33,10.79,14.1
"2010-04-25 00:28:00",55236,5.172,59.88,5.835,1.202,12.53,104.1918,10,11.22,36.52,0,110.3,13.33,10.79,21.9
"2010-04-25 00:28:30",55237,3.851,51.3,4.055,0.775,8.6,104.1949,10.01,11.02,36.47,0,110.3,13.34,10.80,13.3
"2010-04-25 00:29:00",55238,3.825,51.67,4.411,0.217,8.37,104.196,10.02,11.02,36.6,0,110.3,13.37,10.80,13.7
"2010-04-25 00:29:30",55239,4.105,48.22,5.65,1.026,9.81,104.1963,10.02,11.17,36.82,0,110.3,13.34,10.80,10.2
"2010-04-25 00:30:00",55240,4.568,57.31,5.859,1.196,10.77,104.1963,10.02,11.09,36.5,0,110.3,13.34,10.80,19.3
"2010-04-25 00:30:30",55241,5.208,53.15,9.12,1.354,12.27,104.1963,10.02,11.31,36.58,0,110.3,13.34,10.80,15.2
"2010-04-25 00:31:00",55242,4.011,41.48,10.34,1.588,10.69,104.1963,10.02,11.03,37.65,0,110.3,13.34,10.80,3.5
"2010-04-25 00:31:30",55243,2.408,31.2,5.015,0.425,8.94,104.1963,10.02,11.03,37.85,0,110.3,13.37,10.80,353.2
"2010-04-25 00:32:00",55244,4.232,45.68,10.56,1.486,11.18,104.1963,10.02,11.23,36.85,0,110.3,13.34,10.80,7.7
"2010-04-25 00:32:30",55245,3.913,38.76,9.21,1.414,11.15,104.1963,10.02,11.24,36.64,0,110.3,13.34,10.80,0.8
"2010-04-25 00:33:00",55246,2.401,32.33,7.154,0.174,8.28,104.1965,10.02,11.05,36.87,0,110.3,13.37,10.80,354.3
"2010-04-25 00:33:30",55247,2.114,51.33,6.692,0.377,8.09,104.2073,10.04,11.07,36.85,0,110.3,13.37,10.83,13.3
"2010-04-25 00:34:00",55248,1.956,41.48,9.53,0.256,8.37,104.2112,10.05,11.07,37.6,0,110.3,13.37,10.84,3.5
"2010-04-25 00:34:30",55249,3.427,45.38,13.67,1.478,10.75,104.2022,10.03,11.23,37.75,0,110.3,13.34,10.82,7.4
"2010-04-25 00:35:00",55250,2.889,44.57,4.729,0.309,9.02,104.216,10.07,11.09,36.11,0,110.3,13.37,10.85,6.6
"2010-04-25 00:35:30",55251,2.759,57.4,4.013,0.398,9.21,104.225,10.09,11.11,35.76,0,110.3,13.34,10.88,19.4
"2010-04-25 00:36:00",55252,3.945,57.5,9.43,1.478,11.43,104.2289,10.1,11.18,35.44,0,110.3,13.34,10.89,19.5
"2010-04-25 00:36:30",55253,2.379,47.16,6.377,0.226,8.98,104.2301,10.1,11.1,35.15,0,110.3,13.37,10.89,9.2
"2010-04-25 00:37:00",55254,2.624,39.07,8.76,1.037,9.74,104.2292,10.1,11.17,34.84,0,110.3,13.34,10.89,1.1
"2010-04-25 00:37:30",55255,4.298,55.67,13.11,1.169,11.53,104.2385,10.12,11.34,34.8,0,110.3,13.34,10.91,17.7
"2010-04-25 00:38:00",55256,3.823,47.05,5.373,1.153,10.81,104.258,10.17,11.27,34.52,0,110.3,13.34,10.96,9.0
"2010-04-25 00:38:30",55257,2.986,46.51,4.194,0.198,8.45,104.2619,10.18,11.13,34.29,0,110.3,13.37,10.97,8.5
"2010-04-25 00:39:00",55258,4.243,65.99,8.15,1.418,10.71,104.259,10.18,11.31,34.12,0,110.3,13.33,10.96,28.0
"2010-04-25 00:39:30",55259,2.598,70.22,4.895,0.193,9.13,104.256,10.17,11.2,34.2,0,110.3,13.37,10.96,32.2
"2010-04-25 00:40:00",55260,2.607,64.27,10.6,0.758,9.66,104.2719,10.21,11.22,33.84,0,110.3,13.33,11.00,26.3
"2010-04-25 00:40:30",55261,3.405,53.51,7.689,0.665,10.26,104.2788,10.23,11.23,33.73,0,110.3,13.33,11.01,15.5
"2010-04-25 00:41:00",55262,4.434,57.48,8.02,1.229,11.4,104.287,10.25,11.36,33.96,0,110.3,13.33,11.04,19.5
"2010-04-25 00:41:30",55263,2.968,66.04,5.466,0.412,9.16,104.2863,10.25,11.23,33.69,0,110.3,13.37,11.03,28.0
"2010-04-25 00:42:00",55264,4.115,73.17,8.43,1.472,11.74,104.2878,10.25,11.5,34.23,0,110.3,13.33,11.04,35.2
"2010-04-25 00:42:30",55265,4.272,77.75,13.14,1.525,11.69,104.2872,10.25,11.41,34.16,0,110.3,13.33,11.04,39.8
"2010-04-25 00:43:00",55266,1.796,101.3,20.37,0.857,9.22,104.286,10.25,11.27,33.85,0,110.4,13.33,11.03,63.3
"2010-04-25 00:43:30",55267,1.637,101.3,9.66,1.387,8.99,104.2953,10.27,11.35,34.16,0,110.4,13.33,11.06,63.3
"2010-04-25 00:44:00",55268,1.784,133.5,10.77,1.332,10.08,104.3003,10.28,11.36,34.21,0,110.3,13.33,11.07,95.5
"2010-04-25 00:44:30",55269,0.771,111.7,9.22,0.165,8.06,104.2957,10.27,11.3,34.02,0,110.3,13.36,11.06,73.7
"2010-04-25 00:45:00",55270,0.901,95.2,6.639,0.187,8.35,104.2819,10.23,11.28,34.21,0,110.3,13.37,11.02,57.2
"2010-04-25 00:45:30",55271,0.845,101.2,12.89,0.162,8.5,104.2784,10.23,11.26,34.52,0,110.3,13.37,11.01,63.2
"2010-04-25 00:46:00",55272,0.884,110.6,6.025,0.249,8.58,104.2652,10.19,11.25,34.85,0,110.3,13.37,10.98,72.6
"2010-04-25 00:46:30",55273,0.786,130.1,10.74,0.172,8.85,104.2434,10.14,11.22,35.5,0,110.4,13.37,10.92,92.1
"2010-04-25 00:47:00",55274,2.392,120.1,10.51,1.532,11.27,104.2194,10.08,11.36,36.31,0,110.4,13.34,10.86,82.1
"2010-04-25 00:47:30",55275,1.519,105.8,10.51,0.807,9.32,104.2066,10.04,11.24,35.87,0,110.4,13.34,10.83,67.8
"2010-04-25 00:48:00",55276,0.989,128.3,9.43,0.169,9,104.1986,10.02,11.12,36.58,0,110.4,13.37,10.81,90.3
"2010-04-25 00:48:30",55277,1.396,112.7,7.241,0.312,8.95,104.1721,9.95,11.08,36.16,0,110.4,13.37,10.74,74.7
"2010-04-25 00:49:00",55278,2.869,130,16.67,1.251,12.37,104.167,9.94,11.31,36.27,0,110.4,13.33,10.73,92.0
"2010-04-25 00:49:30",55279,2.031,134,12.29,1.347,11.12,104.1607,9.93,11.3,36.27,0,110.4,13.33,10.71,96.0
"2010-04-25 00:50:00",55280,1.474,139.1,9.36,1.285,9.43,104.1575,9.92,11.05,36.07,0,110.4,13.33,10.70,101.1
"2010-04-25 00:50:30",55281,0.832,118.1,8.78,0.73,8.52,104.1607,9.92,11.02,36.08,0,110.4,13.33,10.71,80.1
"2010-04-25 00:51:00",55282,0.578,114.9,8.4,0.145,7.52,104.1622,9.93,10.96,35.94,0,110.4,13.36,10.72,76.9
"2010-04-25 00:51:30",55283,0.43,106.4,11.09,0.211,7.691,104.1619,9.93,10.95,35.82,0,110.4,13.36,10.71,68.4
"2010-04-25 00:52:00",55284,0.76,106.7,13.58,0.135,7.895,104.1548,9.91,10.95,35.79,0,110.4,13.36,10.70,68.7
"2010-04-25 00:52:30",55285,0.399,118.6,11.34,0.185,8.15,104.1404,9.87,10.93,35.99,0,110.4,13.36,10.66,80.6
"2010-04-25 00:53:00",55286,0.484,141.5,7.47,0.108,8.46,104.1272,9.84,10.92,36.11,0,110.4,13.36,10.63,103.5
"2010-04-25 00:53:30",55287,0.181,174.3,21.76,0.106,8.72,104.1272,9.84,10.9,36.29,0,110.4,13.36,10.63,136.3
"2010-04-25 00:54:00",55288,0.002,243.7,35.78,0.076,9.12,104.1272,9.84,10.87,36.33,0,110.4,13.36,10.63,205.7
"2010-04-25 00:54:30",55289,0.41,155.1,27.6,0.179,8.89,104.1272,9.84,10.87,36.38,0,110.4,13.37,10.63,117.1
"2010-04-25 00:55:00",55290,0.983,147.1,34.49,0.321,9.17,104.1272,9.84,10.86,36.38,0,110.4,13.37,10.63,109.1
"2010-04-25 00:55:30",55291,1.734,124.3,17.86,1.152,10.7,104.1441,9.88,10.88,36.41,0,110.3,13.32,10.67,86.3
"2010-04-25 00:56:00",55292,1.459,131.6,7.224,0.756,9.86,104.1585,9.92,10.99,36.47,0,110.4,13.32,10.71,93.6
"2010-04-25 00:56:30",55293,1.902,114.8,16.47,1.351,11.81,104.161,9.93,10.97,36.24,0,110.4,13.32,10.71,76.8
"2010-04-25 00:57:00",55294,2.313,145.9,7.031,1.35,12.46,104.1616,9.93,11.2,36.41,0,110.4,13.32,10.71,107.9
"2010-04-25 00:57:30",55295,2.183,145.2,14.63,1.355,10.9,104.1793,9.97,11.03,36.39,0,110.4,13.32,10.76,107.2
"2010-04-25 00:58:00",55296,0.934,163.7,11.36,0.83,9.35,104.1917,10,11.09,36.35,0,110.4,13.32,10.79,125.7
"2010-04-25 00:58:30",55297,1.43,188.3,7.217,1.229,9.04,104.1948,10.01,10.97,35.96,0,110.4,13.31,10.80,150.3
"2010-04-25 00:59:00",55298,0.725,179.9,7.216,0.109,7.528,104.1948,10.01,10.98,36.06,0,110.4,13.35,10.80,141.9
"2010-04-25 00:59:30",55299,0.282,185.2,13.77,0.114,7.507,104.1948,10.01,10.99,36.32,0,110.4,13.35,10.80,147.2
"2010-04-25 01:00:00",55300,0.167,193.3,13.92,0.132,7.607,104.1948,10.01,10.99,36.95,0,110.4,13.35,10.80,155.3
"2010-04-25 01:00:30",55301,0.201,243.8,17.35,0.074,7.723,104.1948,10.01,10.98,36.83,0,110.4,13.35,10.80,205.8
"2010-04-25 01:01:00",55302,0.39,274.1,8.76,0.194,8.05,104.1948,10.01,10.98,37.15,0,110.4,13.36,10.80,236.1
"2010-04-25 01:01:30",55303,0.761,239.7,4.281,0.25,8.12,104.1948,10.01,11,37.13,0,110.4,13.36,10.80,201.7
"2010-04-25 01:02:00",55304,0.988,221.2,7.554,0.117,8.33,104.1951,10.01,10.98,36.98,0,110.4,13.36,10.80,183.2
"2010-04-25 01:02:30",55305,0.969,178.7,8.81,0.134,8.87,104.2092,10.05,11,37,0,110.4,13.36,10.84,140.7
"2010-04-25 01:03:00",55306,1.228,184.7,14.96,0.156,9.39,104.225,10.09,11.02,36.81,0,110.4,13.36,10.88,146.7
"2010-04-25 01:03:30",55307,1.234,172.5,2.683,0.093,9.83,104.2281,10.1,11.04,36.39,0,110.4,13.36,10.88,134.5
"2010-04-25 01:04:00",55308,1.986,188.5,21.9,1.325,11.67,104.2266,10.09,11.19,36.23,0,110.4,13.32,10.88,150.5
"2010-04-25 01:04:30",55309,2.628,194.4,16.89,1.313,13.1,104.2324,10.11,11.35,36.15,0,110.4,13.32,10.90,156.4
"2010-04-25 01:05:00",55310,3.2,190.1,11.79,1.201,13.79,104.2471,10.15,11.35,35.86,0,110.4,13.32,10.93,152.1
"2010-04-25 01:05:30",55311,1.544,175.9,6.89,0.833,9.67,104.2535,10.16,11.2,35.4,0,110.4,13.32,10.95,137.9
"2010-04-25 01:06:00",55312,1.269,159.2,4.673,0.096,7.565,104.2538,10.16,11.12,35.17,0,110.4,13.35,10.95,121.2
"2010-04-25 01:06:30",55313,1.15,171.5,5.554,0.093,7.594,104.2537,10.16,11.12,35.27,0,110.4,13.35,10.95,133.5
"2010-04-25 01:07:00",55314,1.336,175.2,3.046,0.126,7.658,104.2511,10.16,11.14,35.33,0,110.4,13.35,10.94,137.2
"2010-04-25 01:07:30",55315,1.205,172.7,6.661,0.256,8.15,104.2481,10.15,11.14,35.17,0,110.4,13.36,10.94,134.7
"2010-04-25 01:08:00",55316,0.865,162.9,9.17,0.203,8.33,104.2466,10.14,11.12,35.14,0,110.4,13.36,10.93,124.9
"2010-04-25 01:08:30",55317,0.777,168.7,14.2,0.214,8.67,104.2499,10.15,11.12,35.06,0,110.4,13.36,10.94,130.7
"2010-04-25 01:09:00",55318,0.836,174.7,8.12,0.104,9.23,104.244,10.14,11.14,35.14,0,110.4,13.36,10.93,136.7
"2010-04-25 01:09:30",55319,1.104,179.6,7.199,0.878,9.94,104.2461,10.14,11.15,35.1,0,110.4,13.32,10.93,141.6
"2010-04-25 01:10:00",55320,1.773,174.3,6.276,1.293,11.91,104.2446,10.14,11.3,35.15,0,110.4,13.32,10.93,136.3
"2010-04-25 01:10:30",55321,0.662,163.4,6.972,0.19,9.72,104.246,10.14,11.15,35.07,0,110.4,13.36,10.93,125.4
"2010-04-25 01:11:00",55322,1.23,167,32.75,1.168,10.95,104.2474,10.15,11.17,35.36,0,110.4,13.32,10.93,129.0
"2010-04-25 01:11:30",55323,1.588,185.2,7.044,1.318,11.54,104.2602,10.18,11.3,35.4,0,110.4,13.32,10.97,147.2
"2010-04-25 01:12:00",55324,1.546,181.8,8.3,1.215,10.95,104.2693,10.2,11.35,35.45,0,110.4,13.32,10.99,143.8
"2010-04-25 01:12:30",55325,0.774,183.6,9.61,0.713,9.08,104.2699,10.2,11.25,35.31,0,110.4,13.31,10.99,145.6
"2010-04-25 01:13:00",55326,1.099,180.4,8.24,0.996,9.73,104.2744,10.22,11.35,35.33,0,110.4,13.31,11.00,142.4
"2010-04-25 01:13:30",55327,1.323,186.6,5.903,1.253,9.03,104.2796,10.23,11.2,35.03,0,110.3,13.31,11.02,148.6
"2010-04-25 01:14:00",55328,0.266,179.4,12.93,0.099,7.758,104.2781,10.23,11.21,34.99,0,110.4,13.35,11.01,141.4
"2010-04-25 01:14:30",55329,0.708,218.1,10.8,0.176,7.503,104.2799,10.23,11.22,34.87,0,110.4,13.35,11.02,180.1
"2010-04-25 01:15:00",55330,0.905,225.1,3.401,0.074,7.641,104.2784,10.23,11.23,34.78,0,110.4,13.35,11.01,187.1
"2010-04-25 01:15:30",55331,0.863,224,5.431,0.097,8.01,104.2802,10.23,11.23,34.74,0,110.4,13.35,11.02,186.0
"2010-04-25 01:16:00",55332,0.765,215.6,4.525,0.114,8.58,104.2816,10.23,11.25,34.71,0,110.4,13.35,11.02,177.6
"2010-04-25 01:16:30",55333,2.185,221.1,6.017,1.338,11.27,104.2784,10.23,11.32,34.76,0,110.4,13.31,11.01,183.1
"2010-04-25 01:17:00",55334,1.934,229.1,12.32,1.237,11.59,104.2808,10.23,11.4,34.73,0,110.4,13.32,11.02,191.1
"2010-04-25 01:17:30",55335,0.857,219.8,4.273,0.115,9.56,104.2805,10.23,11.26,34.42,0,110.3,13.35,11.02,181.8
"2010-04-25 01:18:00",55336,2.058,232,8.8,1.35,11.74,104.2816,10.23,11.49,34.64,0,110.3,13.32,11.02,194.0
"2010-04-25 01:18:30",55337,2.832,234.1,11.01,1.195,12.76,104.2822,10.24,11.46,34.59,0,110.4,13.32,11.02,196.1
"2010-04-25 01:19:00",55338,1.219,230.5,3.982,0.133,9.24,104.284,10.24,11.3,34.43,0,110.3,13.36,11.03,192.5
"2010-04-25 01:19:30",55339,1.476,233.1,7.429,0.882,9.75,104.2855,10.24,11.45,34.57,0,110.4,13.32,11.03,195.1
"2010-04-25 01:20:00",55340,1.753,242,4.432,1.205,9.65,104.2872,10.25,11.28,34.4,0,110.3,13.32,11.04,204.0
"2010-04-25 01:20:30",55341,1.171,226.4,4.244,0.093,8.09,104.2858,10.24,11.34,34.43,0,110.3,13.36,11.03,188.4
"2010-04-25 01:21:00",55342,1.266,227.3,3.508,0.094,8.24,104.2881,10.25,11.26,34.34,0,110.4,13.36,11.04,189.3
"2010-04-25 01:21:30",55343,1.362,235.2,3.799,0.207,8.3,104.2914,10.26,11.26,34.28,0,110.3,13.36,11.05,197.2
"2010-04-25 01:22:00",55344,1.776,237,2.001,0.084,8.87,104.2902,10.26,11.27,34.22,0,110.3,13.36,11.04,199.0
"2010-04-25 01:22:30",55345,2.756,244.9,7.816,1.33,11.23,104.2893,10.25,11.39,34.3,0,110.3,13.32,11.04,206.9
"2010-04-25 01:23:00",55346,2.073,241.3,6.839,0.814,10.75,104.2943,10.27,11.41,34.28,0,110.3,13.32,11.05,203.3
"2010-04-25 01:23:30",55347,3.535,255.5,8.14,1.38,12.94,104.2949,10.27,11.55,34.28,0,110.3,13.32,11.06,217.5
"2010-04-25 01:24:00",55348,3.25,255,11.89,1.212,12.08,104.2937,10.27,11.44,34.03,0,110.3,13.32,11.05,217.0
"2010-04-25 01:24:30",55349,2.172,245.4,2.88,0.108,9.14,104.2901,10.26,11.28,33.78,0,110.3,13.36,11.04,207.4
"2010-04-25 01:25:00",55350,2.972,251.9,7.221,1.358,11.04,104.2864,10.25,11.4,33.92,0,110.3,13.32,11.03,213.9
"2010-04-25 01:25:30",55351,1.754,250.6,3.135,0.21,8.64,104.28,10.23,11.35,33.84,0,110.3,13.36,11.02,212.6
"2010-04-25 01:26:00",55352,1.996,246.6,2.427,0.111,8.27,104.2687,10.2,11.23,33.68,0,110.3,13.36,10.99,208.6
"2010-04-25 01:26:30",55353,2.094,245.6,1.127,0.068,8.41,104.2625,10.19,11.25,33.53,0,110.3,13.36,10.97,207.6
"2010-04-25 01:27:00",55354,1.974,250.4,1.398,0.082,9.04,104.2625,10.19,11.23,33.48,0,110.3,13.36,10.97,212.4
"2010-04-25 01:27:30",55355,2.046,248.7,1.968,0.47,9.54,104.2625,10.19,11.24,33.54,0,110.3,13.32,10.97,210.7
"2010-04-25 01:28:00",55356,4.048,255.5,7.014,1.318,13.2,104.262,10.18,11.48,33.71,0,110.3,13.32,10.97,217.5
"2010-04-25 01:28:30",55357,4.341,255.9,6.808,1.222,13.52,104.2521,10.16,11.47,33.74,0,110.3,13.32,10.95,217.9
"2010-04-25 01:29:00",55358,3.519,248.9,6.543,1.179,10.96,104.2436,10.14,11.31,33.71,0,110.3,13.32,10.92,210.9
"2010-04-25 01:29:30",55359,3.663,245.3,6.635,1.218,10.44,104.2295,10.1,11.2,33.66,0,110.3,13.31,10.89,207.3
"2010-04-25 01:30:00",55360,3.779,247.7,7.842,1.26,11.05,104.2287,10.1,11.34,33.86,0,110.3,13.31,10.89,209.7
"2010-04-25 01:30:30",55361,2.875,242.9,2.421,0.127,8.58,104.2276,10.1,11.16,33.7,0,110.3,13.35,10.88,204.9
"2010-04-25 01:31:00",55362,2.782,248.7,3.105,0.136,8.78,104.2194,10.08,11.14,33.66,0,110.3,13.35,10.86,210.7
"2010-04-25 01:31:30",55363,2.692,250.9,0.682,0.08,9.18,104.1988,10.02,11.13,33.57,0,110.3,13.35,10.81,212.9
"2010-04-25 01:32:00",55364,3.636,255.3,6.578,1.261,11.35,104.1948,10.01,11.2,33.62,0,110.3,13.32,10.80,217.3
"2010-04-25 01:32:30",55365,4.923,263.5,4.816,0.831,14.45,104.1948,10.01,11.43,33.88,0,110.3,13.32,10.80,225.5
"2010-04-25 01:33:00",55366,4.424,259.3,5.882,1.221,12.99,104.1915,10,11.26,33.83,0,110.3,13.32,10.79,221.3
"2010-04-25 01:33:30",55367,2.673,250.4,3.049,0.134,9.46,104.1788,9.97,11.11,33.89,0,110.3,13.35,10.76,212.4
"2010-04-25 01:34:00",55368,3.968,261.4,7.279,1.255,11.17,104.163,9.93,11.19,34.02,0,110.3,13.32,10.72,223.4
"2010-04-25 01:34:30",55369,2.799,250.8,2.809,0.099,8.79,104.161,9.93,11.12,33.97,0,110.3,13.36,10.71,212.8
"2010-04-25 01:35:00",55370,2.808,251,2.063,0.05,8.72,104.1579,9.92,11.02,33.95,0,110.3,13.36,10.70,213.0
"2010-04-25 01:35:30",55371,2.887,257.8,2.458,0.078,9.3,104.1472,9.89,11.01,33.97,0,110.3,13.36,10.68,219.8
"2010-04-25 01:36:00",55372,3.319,257.9,4.702,0.981,10.72,104.1289,9.84,11.15,34.16,0,110.3,13.33,10.63,219.9
"2010-04-25 01:36:30",55373,5.422,264.3,5.925,0.956,13.93,104.1275,9.84,11.2,34.33,0,110.3,13.33,10.63,226.3
"2010-04-25 01:37:00",55374,4.958,260.5,6.085,1.188,13.76,104.1185,9.82,11.2,34.42,0,110.3,13.33,10.60,222.5
"2010-04-25 01:37:30",55375,5.472,259.9,3.548,0.725,13.46,104.0983,9.77,11.07,34.43,0,110.3,13.33,10.55,221.9
"2010-04-25 01:38:00",55376,3.161,250,2.655,0.907,9.27,104.1025,9.78,10.98,34.44,0,110.3,13.33,10.56,212.0
"2010-04-25 01:38:30",55377,4.159,256.5,6.818,1.205,11.15,104.1031,9.78,10.96,34.26,0,110.3,13.33,10.56,218.5
"2010-04-25 01:39:00",55378,2.945,251.6,2.849,0.107,8.9,104.0866,9.74,10.86,34.11,0,110.3,13.37,10.52,213.6
"2010-04-25 01:39:30",55379,2.839,250.7,3.096,0.101,9.16,104.0757,9.71,10.85,34.09,0,110.3,13.37,10.49,212.7
"2010-04-25 01:40:00",55380,3.185,250.1,2.86,0.748,9.73,104.0781,9.71,10.81,34.08,0,110.3,13.33,10.50,212.1
"2010-04-25 01:40:30",55381,4.337,265.6,6.586,1.28,13,104.0687,9.69,11,34.31,0,110.3,13.33,10.48,227.6
"2010-04-25 01:41:00",55382,4.918,261.7,6.272,1.138,14.18,104.0584,9.66,11.06,34.3,0,110.2,13.33,10.45,223.7
"2010-04-25 01:41:30",55383,3.529,261.1,3.959,1.093,10.95,104.058,9.66,10.83,34.22,0,110.3,13.34,10.45,223.1
"2010-04-25 01:42:00",55384,3.516,256.2,4.874,1.23,11.24,104.0471,9.63,10.89,34.49,0,110.3,13.33,10.42,218.2
"2010-04-25 01:42:30",55385,3.068,247.1,4.286,0.851,8.96,104.0276,9.58,10.72,34.6,0,110.3,13.34,10.37,209.1
"2010-04-25 01:43:00",55386,2.823,244.9,1.182,0.089,8.48,104.0271,9.58,10.68,34.91,0,110.2,13.37,10.37,206.9
"2010-04-25 01:43:30",55387,2.744,245.8,1.401,0.075,8.94,104.0203,9.57,10.66,34.95,0,110.2,13.37,10.35,207.8
"2010-04-25 01:44:00",55388,2.875,246.7,0.822,0.051,9.54,104.0051,9.53,10.64,34.87,0,110.2,13.38,10.31,208.7
"2010-04-25 01:44:30",55389,4.49,260.9,7.666,1.35,13.01,103.9938,9.5,10.83,35.11,0,110.2,13.34,10.28,222.9
"2010-04-25 01:45:00",55390,5.125,266.6,5.283,1.004,14.68,103.9924,9.49,10.91,35.24,0,110.2,13.35,10.28,228.6
"2010-04-25 01:45:30",55391,3.665,264.9,5.925,1.304,11.84,103.9805,9.46,10.69,34.98,0,110.2,13.34,10.25,226.9
"2010-04-25 01:46:00",55392,3.993,265.5,7.487,1.357,12.37,103.9625,9.42,10.82,35.02,0,110.2,13.34,10.20,227.5
"2010-04-25 01:46:30",55393,4.053,262.3,5.862,1.133,9.88,103.9594,9.41,10.54,34.81,0,110.2,13.34,10.20,224.3
"2010-04-25 01:47:00",55394,3.291,257.1,1.2,0.05,8.94,103.9574,9.41,10.54,34.89,0,110.2,13.37,10.19,219.1
"2010-04-25 01:47:30",55395,3.218,255,1.819,0.069,9.03,103.9499,9.39,10.51,34.98,0,110.2,13.37,10.17,217.0
"2010-04-25 01:48:00",55396,3.095,251.8,1.498,0.129,9.48,103.937,9.35,10.49,35.04,0,110.2,13.38,10.14,213.8
"2010-04-25 01:48:30",55397,4.017,254.7,6.044,1.375,12.21,103.9355,9.35,10.69,35.3,0,110.2,13.35,10.13,216.7
"2010-04-25 01:49:00",55398,4.705,257.8,6.38,1.154,13.91,103.9379,9.36,10.72,35.42,0,110.2,13.35,10.14,219.8
"2010-04-25 01:49:30",55399,4.235,256,6.401,1.255,13.48,103.9339,9.34,10.69,35.42,0,110.2,13.35,10.13,218.0
"2010-04-25 01:50:00",55400,3.767,255.8,6.457,1.23,11.57,103.9282,9.33,10.48,34.95,0,110.2,13.35,10.12,217.8